Find Starlink 38252

NORAD ID: 100254 Int'l Des: 2026-181 Owner: SPXS Country: US Constellation: starlink operational

現在のビュー

3D地球を読み込み中...

About Starlink 38252

Starlink 38252 (NORAD 100254) is a starlink constellation satellite launched Aug 8, 2026 by SPXS of US. with a mass of 575.00 kg.

次回通過

Passes for default location (London). Set your location on the main map for personalized predictions.

高度履歴

Loading altitude history...

軌道要素

1 A0254U 26181J 26262.06473075 .00196095 00000-0 12816-2 0 9999
2 A0254 97.2852 305.5763 0001197 101.3706 258.7694 15.75262336 7739
Epoch: Sep 19, 2026 • Age: 38 hours

現在のステータス

高度 371.4 km
遠地点 / 近地点 N/A
速度 7.68 km/s
衛星直下点 -82.39°S, 173.41°W
打ち上げ日 Aug 8, 2026
運用期間 0.1 years
タイプ internet

技術仕様

分類 Payload
質量 575.00 kg
乾燥質量 530.00 kg
長さ 0.30 m
スパン 29.00 m
形状 ? Box + pan
製造者 SPXS
バスタイプ Starlink V2MO
フェーズステータス In Orbit
所有者/国 SPXS/US

Most Searched